Theta_e
322 320 322 323 321 321 323 325 325 325 326 327 327 328 328 332 334 334 335 336 337 337 337 337 336 336 338 331 329 330 338 333 330 333 329 330 331 332 331 329 329 328 326 325
319 322 322 322 321 324 325 324 325 328 328 326 325 324 326 327 329 329 334 335 336 336 337 336 336 339 334 331 330 330 329 329 328 327 332 333 331 332 329 328 326 325 326 326
321 322 321 323 323 326 325 326 324 330 328 325 324 326 323 324 329 334 335 334 335 335 335 337 334 334 333 333 333 328 327 328 331 326 328 331 330 329 329 328 327 326 326 325
322 321 322 322 325 324 328 325 326 326 324 329 324 326 325 322 326 332 336 336 336 336 336 338 336 334 334 333 332 329 328 329 332 332 330 330 330 329 328 327 326 325 324 322
322 324 326 326 326 325 328 323 324 325 325 326 326 326 325 322 325 329 335 338 337 337 339 338 334 335 331 329 329 332 332 332 330 330 328 328 328 327 326 324 322 321 320 319
325 326 325 328 327 326 324 324 321 322 322 329 325 326 325 324 323 328 334 337 338 338 337 335 331 330 329 329 330 327 326 326 325 327 328 325 320 321 321 320 319 318 317 316
324 326 327 329 327 325 323 321 324 328 328 329 324 327 325 323 324 328 329 333 335 331 329 328 328 328 327 325 323 322 322 320 321 321 321 320 320 320 319 317 315 313 310 308
326 327 329 329 328 328 325 322 324 330 330 329 324 328 326 325 328 329 330 330 330 330 328 327 326 325 323 322 322 321 322 320 319 320 320 317 316 315 313 308 307 307 307 307
329 330 328 330 327 326 328 329 324 324 322 325 325 327 325 325 325 327 327 328 328 329 328 325 324 322 322 322 321 322 319 318 318 318 317 315 313 310 307 307 307 308 308 308
326 330 330 330 328 327 326 325 326 322 326 330 326 326 325 328 327 325 325 326 326 326 325 324 322 321 322 321 321 321 318 318 318 316 315 312 309 308 307 307 308 308 308 309
325 326 330 327 329 329 325 328 322 320 320 326 328 326 322 324 324 325 325 326 326 326 324 321 320 320 321 321 322 321 319 318 316 315 313 310 308 308 307 307 308 309 309 309
327 325 329 330 328 329 327 327 321 323 326 322 323 327 325 323 325 326 326 326 327 325 322 321 320 321 322 322 322 321 318 317 315 313 311 309 308 308 308 308 309 309 309 309
326 325 327 328 324 326 330 328 323 320 321 326 327 326 325 326 326 326 327 323 322 322 321 321 320 320 321 322 322 320 317 316 314 312 310 308 308 308 309 309 309 309 308 308
326 322 325 326 323 325 329 329 326 324 325 327 328 329 327 326 326 327 327 322 322 322 321 320 320 320 321 322 322 318 317 315 313 311 309 308 309 308 309 308 308 308 308 308
320 326 327 326 328 330 330 330 329 328 326 328 326 329 326 325 326 326 324 322 322 321 321 320 320 321 321 321 319 317 316 314 312 310 308 309 309 309 309 309 309 308 309 308
323 330 328 328 329 329 329 328 328 329 328 328 326 328 325 326 326 326 324 323 323 321 320 320 321 321 321 319 318 317 315 313 310 308 308 309 309 309 309 309 309 310 310 308
325 324 322 331 327 327 327 331 329 328 327 327 330 326 326 325 326 326 325 324 323 320 319 319 321 322 320 318 316 315 314 311 308 308 308 309 309 309 309 310 310 310 310 310
326 324 322 326 325 327 323 328 329 330 330 328 326 325 326 326 327 326 326 324 322 320 320 319 321 321 317 316 316 315 313 309 308 308 308 309 309 309 309 310 310 310 310 310
323 323 326 326 327 328 331 330 329 330 329 328 327 325 326 326 326 326 325 324 321 320 319 320 321 320 317 316 316 315 313 309 308 308 308 308 307 307 309 310 310 310 310 310
323 321 325 324 330 332 328 329 330 326 328 329 328 326 326 326 325 323 325 323 321 320 319 320 321 319 317 316 315 315 313 310 310 310 308 308 309 306 308 309 310 310 310 311
326 323 326 324 327 326 324 329 329 327 324 329 329 328 327 325 326 325 325 321 321 320 319 320 321 319 317 316 315 315 311 311 310 309 309 308 310 306 307 308 309 310 309 310
327 327 326 323 326 329 327 328 328 325 329 330 329 329 328 327 327 325 322 322 320 318 319 320 321 319 317 316 315 314 310 309 309 308 308 309 308 305 306 306 306 307 308 308
328 325 326 324 324 323 328 326 328 325 326 327 327 328 329 327 325 323 322 320 317 317 319 320 321 320 317 316 313 314 311 310 309 308 308 309 307 305 309 308 309 306 306 308
323 325 322 323 321 324 327 327 327 328 326 325 327 329 328 328 325 323 322 318 315 317 319 319 319 320 317 315 314 314 312 311 308 307 309 308 308 309 310 310 310 309 306 308
322 322 320 320 323 326 326 328 328 330 326 326 329 328 324 324 323 322 321 316 315 318 319 319 319 319 317 315 315 314 313 311 308 308 308 309 310 310 311 311 310 311 308 308
322 320 322 322 325 324 325 325 328 327 327 328 329 328 325 324 323 322 319 314 315 316 317 319 320 319 318 316 315 315 313 310 308 309 308 308 310 311 311 311 311 311 312 311
Wind_Speed
5 6 1 4 3 3 3 2 5 2 4 8 4 7 8 14 16 13 3 2 8 6 4 7 11 10 9 12 11 11 7 11 14 13 15 16 16 13 15 16 17 21 23 26
7 1 4 3 6 6 4 6 4 3 3 12 12 12 6 14 10 17 6 1 6 7 4 6 5 8 4 10 14 12 11 16 21 17 11 13 15 15 18 21 22 23 26 26
4 4 3 4 6 7 2 1 4 10 1 5 5 13 9 9 20 20 16 7 3 2 4 2 9 8 9 15 16 14 9 12 19 12 14 13 12 16 18 21 23 22 21 18
3 8 5 9 5 4 4 6 5 8 4 2 2 2 7 9 8 19 15 9 3 2 3 6 8 9 12 17 16 14 13 19 20 18 21 22 19 18 19 19 18 14 14 13
4 6 8 7 2 2 2 7 5 4 5 4 10 6 7 6 9 8 17 6 5 2 4 7 6 12 13 15 14 14 16 13 19 20 21 21 20 19 18 16 15 15 17 19
3 3 4 2 3 3 6 5 8 5 3 4 7 4 5 5 6 6 10 9 8 6 4 6 8 8 10 13 14 17 18 18 19 19 18 17 18 17 16 18 19 21 22 24
7 4 5 7 4 6 3 7 4 4 5 4 3 5 5 6 5 4 9 10 12 13 12 12 13 13 12 14 17 18 17 18 17 17 18 21 20 20 21 23 24 25 24 21
3 5 6 9 3 1 5 5 5 4 3 2 5 2 3 3 3 6 7 9 9 9 11 13 13 13 15 14 15 16 15 17 16 16 16 19 18 18 19 18 15 15 15 13
4 1 3 2 4 1 1 5 2 6 3 3 1 1 4 3 5 6 8 11 11 10 9 10 12 14 12 14 15 15 19 18 16 16 18 21 21 22 18 17 16 15 16 14
6 3 1 3 1 8 5 5 4 4 2 1 3 2 4 3 4 4 5 6 8 9 8 10 13 13 14 17 16 15 17 16 16 19 21 23 23 19 16 16 15 16 16 15
4 4 3 2 5 1 5 3 6 5 3 4 1 5 5 8 6 2 6 4 3 5 9 13 14 13 13 14 10 12 14 14 18 21 23 23 22 19 16 16 16 17 17 17
1 5 3 2 0 0 1 2 3 5 2 2 3 4 2 6 4 3 5 2 5 4 7 12 12 10 11 11 11 12 14 17 20 22 25 25 19 17 17 17 16 16 16 17
6 2 3 7 5 1 3 2 4 4 3 2 4 5 1 3 4 4 1 4 3 4 6 9 12 12 12 12 12 13 15 18 20 23 26 21 18 17 18 17 16 16 16 14
5 3 6 6 4 2 3 2 2 4 3 4 4 2 5 6 5 2 4 6 1 4 7 12 12 13 14 12 12 13 16 19 21 23 23 19 19 17 17 17 16 15 16 15
4 4 0 3 2 3 2 3 4 4 3 4 5 8 7 10 9 7 7 6 2 5 8 10 11 12 12 10 10 13 16 18 19 20 19 16 15 13 15 15 16 17 17 16
4 1 1 6 2 3 3 6 6 3 2 2 4 4 2 12 12 7 8 6 6 6 7 8 9 11 10 10 12 14 14 17 17 17 15 15 14 13 14 15 15 17 20 16
3 4 3 1 3 4 4 3 2 2 2 5 4 4 9 6 13 10 6 9 8 5 7 7 8 9 10 13 15 14 15 17 16 16 14 15 16 14 14 15 15 17 19 19
4 4 2 2 2 0 5 3 2 3 0 0 2 2 7 11 12 8 7 8 5 5 8 8 7 7 12 15 15 12 14 13 16 16 14 15 16 15 14 13 15 17 18 18
5 4 3 4 2 4 2 3 1 3 4 2 1 6 8 12 7 6 10 7 4 5 8 6 5 6 11 13 15 10 14 10 13 15 15 15 17 15 13 14 15 15 16 17
5 7 4 2 3 4 5 2 5 5 4 3 8 11 14 13 3 6 11 7 3 6 7 5 5 5 8 10 15 12 15 9 12 12 14 15 14 14 12 13 13 16 16 17
3 4 4 2 2 6 5 4 6 5 6 6 11 13 18 8 7 3 9 6 4 7 5 4 4 3 6 9 14 16 12 10 12 13 13 12 13 13 13 11 12 14 14 14
5 5 2 3 2 4 10 6 5 6 10 8 10 14 22 19 6 6 8 3 5 5 3 3 5 4 5 8 13 16 12 11 12 14 10 11 11 12 14 13 13 12 13 12
1 5 5 7 6 2 21 2 8 13 14 13 11 9 17 18 11 10 6 5 4 3 1 4 5 5 5 9 14 15 13 10 13 11 8 11 10 9 12 12 14 14 13 13
1 3 3 2 3 5 16 7 9 16 10 6 7 8 7 16 15 12 9 3 2 0 2 4 4 5 5 8 11 12 13 10 12 9 9 10 9 9 11 11 12 13 12 11
3 5 4 3 4 1 8 18 11 14 10 10 12 11 8 11 14 13 7 3 1 0 2 3 5 3 4 6 8 10 11 8 9 10 8 9 9 10 11 11 11 12 13 11
6 6 4 5 8 10 10 17 18 17 13 14 14 16 15 14 13 12 6 3 1 1 3 2 4 3 4 6 8 8 9 7 5 8 8 7 9 10 11 10 10 10 11 11
Wind_Direction
15 58 23 283 185 171 146 74 71 153 229 66 23 56 22 31 44 42 41 154 178 217 244 307 311 337 2 7 4 345 338 8 353 334 317 315 307 295 299 302 291 287 289 290
11 115 204 240 89 104 64 94 65 29 74 92 68 31 348 27 29 33 61 109 134 145 211 267 332 350 37 9 14 349 317 315 319 322 315 307 305 299 300 298 299 293 291 298
150 276 260 148 70 80 357 207 164 154 111 59 49 38 13 354 33 48 55 89 137 152 169 41 50 25 3 351 351 0 355 345 338 312 323 320 308 300 305 303 302 304 313 309
23 321 50 100 105 124 55 337 171 123 75 93 7 152 2 340 6 35 37 64 88 127 105 16 28 0 347 350 351 342 321 318 325 331 329 331 327 322 322 319 323 324 313 310
288 14 39 66 24 162 86 46 50 102 90 73 356 79 294 354 358 2 13 69 69 87 0 11 358 2 6 354 339 336 342 337 327 322 323 326 329 338 341 344 347 341 329 318
7 340 57 54 7 31 146 70 43 56 76 53 313 108 308 3 312 334 2 37 47 51 46 32 19 7 1 356 3 4 354 345 339 332 333 353 358 356 350 342 333 326 322 317
355 360 339 39 4 23 91 67 3 10 20 188 299 57 229 320 331 342 336 23 49 61 54 40 39 37 25 13 1 359 358 357 355 355 355 356 351 340 332 326 320 314 313 314
96 356 9 343 56 191 34 117 146 195 184 229 6 112 265 293 20 33 37 42 52 59 49 51 42 27 14 8 11 6 15 9 7 7 3 356 343 338 334 332 339 343 342 342
133 275 325 59 35 44 132 48 163 106 19 71 239 325 295 2 29 63 38 59 63 70 68 50 26 13 9 13 13 23 19 18 17 9 359 356 354 349 355 1 4 6 10 9
188 101 70 297 2 36 98 154 57 19 128 188 288 243 224 226 225 286 353 53 77 84 66 37 20 11 11 8 10 18 11 8 9 1 358 357 357 0 6 10 14 14 12 4
128 96 278 31 29 331 348 29 55 109 115 156 185 259 212 203 221 324 301 341 113 84 40 20 13 5 360 1 2 1 359 1 0 0 360 360 6 9 10 14 14 12 7 8
116 123 98 185 323 191 197 98 103 112 222 70 136 282 27 198 209 249 306 62 113 51 17 9 4 355 350 345 340 348 355 359 1 3 2 1 9 20 18 14 13 9 8 9
178 31 60 352 358 347 63 54 97 103 83 184 123 265 162 186 215 229 271 155 95 35 358 354 2 3 350 333 338 348 353 360 2 2 1 5 11 10 11 10 9 10 12 12
102 101 149 181 197 146 63 108 117 99 104 176 215 234 233 228 211 121 172 171 109 349 340 355 356 359 354 335 336 346 354 359 359 1 4 11 16 17 15 12 10 9 12 10
89 96 137 73 141 125 127 81 186 200 166 143 213 193 214 200 183 153 178 181 270 310 341 347 352 352 355 343 345 351 354 360 2 2 6 14 11 13 13 17 17 13 12 20
10 127 93 27 28 51 75 32 89 93 125 57 113 242 252 179 153 159 183 201 252 292 328 344 346 350 356 354 354 353 358 360 2 4 13 18 17 19 20 19 22 23 28 29
68 120 82 98 339 48 9 332 321 180 172 148 173 238 154 147 170 183 208 216 248 294 333 338 340 351 11 6 12 1 3 1 9 9 18 22 16 16 18 21 24 23 25 27
115 89 72 148 45 114 251 312 218 139 331 274 335 191 170 175 180 190 214 228 252 310 340 335 339 4 19 21 13 4 2 10 15 16 22 16 17 16 16 19 17 17 22 25
66 113 72 113 97 298 280 248 158 88 294 147 109 115 117 133 148 227 214 235 260 316 335 337 342 7 16 18 13 357 358 14 10 13 15 14 14 10 13 19 22 20 22 24
60 68 105 105 117 208 245 194 129 117 314 215 172 163 147 145 150 244 214 210 253 319 326 335 346 356 13 14 16 6 358 3 355 354 2 5 7 2 6 18 23 21 23 29
29 18 109 89 142 290 235 157 137 78 240 191 203 190 175 191 190 329 189 200 291 317 305 333 311 322 355 10 15 8 5 4 359 357 351 2 10 9 20 22 18 17 20 26
165 131 153 95 89 282 168 128 172 191 165 184 208 221 204 205 215 188 182 227 292 291 306 334 286 289 337 360 10 10 5 6 1 1 10 18 22 31 38 32 28 24 26 31
193 177 178 171 210 241 182 199 181 167 176 197 207 223 215 202 193 187 203 260 296 256 335 354 285 280 327 356 8 12 8 6 2 5 21 15 25 32 30 30 32 31 29 36
8 153 123 116 244 229 202 205 195 190 196 201 206 198 193 208 201 202 212 249 312 59 4 9 332 279 317 358 12 9 9 10 11 19 25 25 35 30 22 27 25 28 26 36
192 147 149 278 274 238 223 218 212 194 200 206 200 193 159 191 201 205 208 245 280 12 354 11 356 282 297 347 2 1 5 10 15 22 27 33 31 27 29 24 26 33 32 32
191 172 156 221 211 194 216 217 204 199 205 214 208 195 200 207 210 195 212 222 252 326 339 346 346 301 281 321 343 353 3 11 16 21 24 26 32 35 27 28 25 21 29 25